Regional Weather Roundup
Issued by NWS Midland/Odessa, TX

Skip options and go directly to product.
Home | Oldest Version | Previous Version | Current Version | All | Graphics & Text | Save Text | Print | Product List | Glossary On

Skip product version selection by date and time.   
278
ASUS44 KMAF 110510
RWRMAF
MIDLAND AREA WEATHER ROUNDUP
NATIONAL WEATHER SERVICE MIDLAND TX
1100 PM CST SAT DEC 10 2016

...IN SOUTHWEST TEXAS AND SOUTHEAST NEW MEXICO...

CITY           SKY/WX    TMP DP  RH WIND       PRES   REMARKS
ALPINE         CLOUDY    53  41  64 S5        30.18S
ANDREWS        FAIR      42  39  89 S15       30.00S WCI  35
ARTESIA        CLEAR     52  34  50 SW12      29.96S
BIG SPRING     PTCLDY    43  40  90 S20       30.04F WCI  34
CARLSBAD       CLOUDY    50  36  58 S12       29.96F
DRYDEN           N/A     43  42  97 SE3       30.13S
FORT STOCKTON  NOT AVBL
GUAD PASS      CLOUDY    47  38  71 W28G36    30.08F WCI  38
HOBBS          CLOUDY    41  41 100 SW13      29.99S WCI  34
MARFA          CLOUDY    32  31  96 N6        30.18R WCI  26
MIDLAND AIRPK  CLOUDY    44  39  82 S10       30.02F WCI  39
MIDLAND INTL   CLOUDY    43  38  82 S8        30.02F WCI  38
ODESSA         CLOUDY    45  38  76 S13       30.02F WCI  39
PECOS          CLOUDY    42  39  89 CALM      30.02S
PRESIDIO       FAIR      48  41  77 N6        30.11S
SEMINOLE       CLOUDY    40  38  93 CALM      29.99F
SNYDER         CLOUDY    45  43  93 S20       30.02S WCI  37
WINK           CLOUDY    40  39  97 SE7       30.01S WCI  35
$$
...OTHER STATIONS IN TEXAS...

CITY           SKY/WX    TMP DP  RH WIND       PRES   REMARKS
ABILENE        CLOUDY    52  48  86 S20G33    30.03F
AMARILLO       CLOUDY    50  35  56 SW20G28   29.83F
AUSTIN         DRIZZLE   51  50  96 S7        30.20F FOG
BROWNSVILLE    CLOUDY    53  49  86 W6        30.20F
CORPUS CHRISTI CLOUDY    57  56  96 SW6       30.18F
DALLAS FTW     CLOUDY    48  34  58 S15G23    30.12F
DEL RIO        CLOUDY    46  44  93 SE9       30.17S
EL PASO        CLEAR     47  37  68 S9        30.08S
HOUSTON INT    CLOUDY    51  38  60 E8        30.24F
LUBBOCK        CLOUDY    47  39  74 S18       29.93F WCI  40
SAN ANGELO     CLOUDY    52  49  89 S16G26    30.08F
SAN ANTONIO    DRZL/FOG  48  47  96 CALM      30.20F VSB 1/2
WACO           CLOUDY    50  43  77 S18       30.18F
WICHITA FALLS  NOT AVBL
$$
...OTHER LOCATIONS IN NEW MEXICO...

CITY           SKY/WX    TMP DP  RH WIND       PRES   REMARKS
ALAMAGORDO     NOT AVBL
ALBUQUERQUE    CLOUDY    40  30  67 S7        30.04S WCI  35
CANNON AFB     CLOUDY    45  39  80 W16       29.92S WCI  37
CLOVIS         CLOUDY    43  34  70 W9        29.92S WCI  37
HOLLOMAN AFB   CLOUDY    45  34  66 SE9       30.09F WCI  40
ROSWELL        CLOUDY    33  28  81 NE5       29.95F WCI  29
RUIDOSO        CLOUDY    37  23  56 E3        30.08S
SANTA FE       CLOUDY    36  26  67 NW6       30.02F WCI  31
TRUTH OR CONSE PTCLDY    41  30  65 W9        30.06S WCI  35
TUCUMCARI      CLOUDY    52  27  38 SW12G28   29.83S
$$